Home   Weather   Wolfsberg   Past weeks

Flag for Austria Past Weather in Wolfsberg, Carinthia, Austria — Yesterday and Last 2 Weeks

Now
7 °F

Light freezing rain. Clear.


Feels Like: 7 °F
Forecast: 12 / 33 °F
Wind: 2 mph from West

Location: Zeltweg

Current Time: Jan 24, 2017 at 2:33:18 am

Latest Report: Jan 24, 2017 at 12:50 am


Visibility: 3 mi

Pressure: 30.15 "Hg

Humidity: 85%

Dew Point: 3 °F

Location of WolfsbergLocation

Past Weather in Wolfsberg — Graph

°F

Wolfsberg Temperature Yesterday

Maximum temperature yesterday: 28 °F (at 1:20 pm)
Minimum temperature yesterday: 5 °F (at 7:50 am)
Average temperature yesterday: 17 °F

High & Low Weather Summary for the Past Weeks

 TemperatureHumidityPressure
High41 °F (Jan 13, 4:50 am)100% (Jan 13, 10:20 am)30.54 "Hg (Jan 13, 10:20 am)
Low3 °F (Jan 11, 8:20 am)44% (Jan 9, 2:20 pm)29.42 "Hg (Jan 13, 4:50 am)
Average20 °F76%30.12 "Hg
* Reported Jan 9 3:50 am — Jan 24 12:50 am, Wolfsberg, Weather by CustomWeather, © 2017

Note: Actual official high and low records may vary slightly from our data, if they occured in-between our weather recording intervals... More about our weather records

Advertising

Wolfsberg Weather History for the Previous 24 Hours

Scroll right to see more
 ConditionsComfort  
Time TempWeatherWind HumidityBarometerVisibility
12:50 am
Tue, Jan 24
7 °FLight freezing rain. Clear.2 mph85%30.15 "Hg3 mi
9:50 pm
Mon, Jan 23
9 °FClear.2 mph85%30.15 "Hg6 mi
8:50 pm10 °FClear.2 mph85%30.15 "Hg6 mi
7:50 pm16 °FClear.1 mph86%30.15 "Hg6 mi
6:50 pm16 °FClear.1 mph86%30.12 "Hg6 mi
5:50 pm19 °FClear.2 mph79%30.12 "Hg9 mi
5:20 pm21 °FClear.2 mph74%30.12 "Hg19 mi
4:50 pm23 °FClear.3 mph74%30.12 "Hg19 mi
4:20 pm25 °FSunny.1 mph69%30.12 "Hg19 mi
3:50 pm27 °FSunny.3 mph69%30.12 "Hg19 mi
3:20 pm27 °FSunny.3 mph69%30.12 "Hg19 mi
2:50 pm28 °FSunny.2 mph64%30.12 "Hg19 mi
2:20 pm28 °FSunny.3 mph64%30.15 "Hg19 mi
1:50 pm27 °FSunny.1 mph69%30.15 "Hg19 mi
1:20 pm28 °FSunny.1 mph64%30.15 "Hg19 mi
12:50 pm25 °FSunny.2 mph69%30.18 "Hg19 mi
12:20 pm23 °FSunny.1 mph74%30.18 "Hg19 mi
11:50 am21 °FSunny.2 mph80%30.21 "Hg19 mi
11:20 am18 °FSunny.2 mph86%30.21 "Hg19 mi
10:50 am16 °FSunny.2 mph86%30.24 "Hg19 mi
10:20 am14 °FSunny.2 mph92%30.24 "Hg19 mi
9:50 am12 °FSunny.2 mph92%30.24 "Hg12 mi
9:20 am12 °FPassing clouds.1 mph85%30.24 "Hg9 mi
8:50 am9 °FLight fog.2 mph100%30.27 "Hg2 mi
8:20 am7 °FLight freezing rain. Passing clouds.1 mph100%30.27 "Hg1 mi
7:50 am5 °FLight fog.1 mph92%30.27 "Hg1 mi
7:20 am7 °FLight fog.1 mph92%30.27 "Hg1 mi
6:50 am9 °FIce fog.2 mph85%30.27 "Hg1 mi
5:50 am9 °FSleet. Light fog.No wind85%30.27 "Hg1 mi
4:50 am9 °FClear.2 mph85%30.30 "Hg4 mi
Weather by CustomWeather, © 2017

See weather overviewHow to use our weather pages